Barcelona, Spain

7:36 PM CEST on March 28, 2017 (GMT +0200)
El Prat

Weather History for LEBL - February, 2014

Change the Weather History Date:

Tuesday, February 11, 2014

  Actual Average Record
Temperature  
Mean Temperature 50 °F -  
Max Temperature 55 °F 56 °F 62 °F (2000)
Min Temperature 44 °F 42 °F 35 °F (1999)
Degree Days  
Heating Degree Days 16    
Moisture  
Dew Point 32 °F    
Average Humidity 50    
Maximum Humidity 71    
Minimum Humidity 24    
Precipitation  
Precipitation 0.00 in 0.05 in - ()
Sea Level Pressure  
Sea Level Pressure 29.87 in    
Wind  
Wind Speed 16 mph ()    
Max Wind Speed 24 mph    
Max Gust Speed 36 mph    
Visibility 10.5 miles    
Events      
Averages and records for this station are not official NWS values.
T = Trace of Precipitation, MM = Missing Value Source: Averaged Metar Reports

Daily Weather History Graph

Daily Weather History Graph

Search for Another Location

Airport or City:

Trip Planner

Search our weather history database for the weather conditions in past years. The results will help you decide how hot, cold, wet, or windy it might be!

Date:

Astronomy

Feb. 11, 2014 Rise Set
Actual Time 7:51 AM CET 6:20 PM CET
Civil Twilight 7:23 AM CET 6:49 PM CET
Nautical Twilight 6:50 AM CET 7:21 PM CET
Astronomical Twilight 6:18 AM CET 7:53 PM CET
Moon 3:26 PM CET (2/11) 5:19 AM CET (2/11)
Length of Visible Light 11h 25m
Length of Day
10h 28m
Waxing Gibbous, 89% of the Moon is Illuminated
Feb 11
Waxing Gibbous
Feb 15
Full
Feb 22
Last Quarter
Mar 1
New
Mar 8
First Quarter

Hourly Weather History & Observations

Time (CET) Temp. Windchill Dew Point Humidity Pressure Visibility Wind Dir Wind Speed Gust Speed Precip Events Conditions
12:00 AM 49 °F - 34 °F 45% 29.79 in 19 mi NNW 16.1 mph - -  
12:00 AM 48.2 °F - 32.0 °F 54% 29.77 in 6.2 mi NW 23.0 mph - N/A   Partly Cloudy
12:30 AM 48.2 °F - 32.0 °F 54% 29.80 in 6.2 mi NW 19.6 mph - N/A   Partly Cloudy
1:00 AM 49 °F - 34 °F 45% 29.82 in 19 mi NNW 20.7 mph - -   Scattered Clouds
1:00 AM 48.2 °F - 32.0 °F 54% 29.80 in 6.2 mi NNW 21.9 mph 33.4 mph N/A   Partly Cloudy
1:30 AM 48.2 °F - 32.0 °F 54% 29.83 in 6.2 mi NNW 21.9 mph - N/A   Partly Cloudy
2:00 AM 47 °F - 35 °F 51% 29.86 in 19 mi NNW 18.4 mph - -  
2:00 AM 46.4 °F 38.5 °F 32.0 °F 57% 29.83 in 6.2 mi NW 21.9 mph - N/A   Partly Cloudy
2:30 AM 46.4 °F 38.5 °F 32.0 °F 57% 29.86 in 6.2 mi NNW 21.9 mph - N/A   Partly Cloudy
3:00 AM 46 °F - 35 °F 55% 29.87 in 19 mi North 16.1 mph - -  
3:00 AM 46.4 °F 38.5 °F 33.8 °F 62% 29.86 in 6.2 mi NW 21.9 mph - N/A   Partly Cloudy
3:30 AM 46.4 °F 38.3 °F 32.0 °F 57% 29.86 in 6.2 mi NNW 23.0 mph - N/A   Partly Cloudy
4:00 AM 47 °F - 34 °F 50% 29.88 in 19 mi NNW 16.1 mph - -   Scattered Clouds
4:00 AM 46.4 °F 38.5 °F 32.0 °F 57% 29.86 in 6.2 mi NW 21.9 mph - N/A   Partly Cloudy
4:30 AM 46.4 °F 38.1 °F 32.0 °F 57% 29.89 in 6.2 mi NNW 24.2 mph - N/A   Partly Cloudy
5:00 AM 46 °F - 34 °F 51% 29.90 in 19 mi NNW 19.6 mph - -  
5:00 AM 46.4 °F 38.3 °F 32.0 °F 57% 29.89 in 6.2 mi NNW 23.0 mph - N/A   Partly Cloudy
5:30 AM 44.6 °F 36.1 °F 32.0 °F 61% 29.89 in 6.2 mi NNW 21.9 mph - N/A   Partly Cloudy
6:00 AM 46 °F - 33 °F 50% 29.92 in 19 mi NNW 23.0 mph - -  
6:00 AM 46.4 °F 38.1 °F 32.0 °F 57% 29.92 in 6.2 mi NNW 24.2 mph 35.7 mph N/A   Partly Cloudy
6:30 AM 46.4 °F 38.5 °F 30.2 °F 53% 29.92 in 6.2 mi NW 21.9 mph - N/A   Partly Cloudy
7:00 AM 45 °F - 33 °F 51% 29.93 in 19 mi NNW 16.1 mph - -   Scattered Clouds
7:00 AM 44.6 °F 35.9 °F 30.2 °F 57% 29.92 in 6.2 mi NW 23.0 mph - N/A   Partly Cloudy
7:30 AM 44.6 °F 36.1 °F 32.0 °F 61% 29.92 in 6.2 mi NW 21.9 mph - N/A   Partly Cloudy
8:00 AM 44 °F - 33 °F 54% 29.95 in 19 mi NNW 16.1 mph - -  
8:00 AM 44.6 °F 36.1 °F 30.2 °F 57% 29.95 in 6.2 mi NW 21.9 mph - N/A   Partly Cloudy
8:30 AM 44.6 °F 36.4 °F 30.2 °F 57% 29.95 in 6.2 mi NW 20.7 mph 35.7 mph N/A   Partly Cloudy
9:00 AM 46 °F - 32 °F 47% 29.97 in 19 mi NW 12.7 mph - -  
9:00 AM 46.4 °F 39.0 °F 30.2 °F 53% 29.95 in 6.2 mi WNW 19.6 mph - N/A   Partly Cloudy
9:30 AM 46.4 °F 39.5 °F 30.2 °F 53% 29.95 in 6.2 mi NW 17.3 mph - N/A   Partly Cloudy
10:00 AM 49 °F - 32 °F 40% 29.97 in 19 mi NW 8.1 mph - -   Scattered Clouds
10:00 AM 48.2 °F - 30.2 °F 50% 29.95 in 6.2 mi NW 12.7 mph - N/A   Partly Cloudy
10:30 AM 50.0 °F - 32.0 °F 50% 29.95 in 6.2 mi NW 12.7 mph - N/A   Partly Cloudy
11:00 AM 53 °F - 33 °F 35% 29.94 in 19 mi North 9.2 mph - -  
11:00 AM 51.8 °F - 30.2 °F 44% 29.95 in 6.2 mi NW 11.5 mph - N/A   Partly Cloudy
11:30 AM 53.6 °F - 30.2 °F 41% 29.92 in 6.2 mi NNW 9.2 mph - N/A   Partly Cloudy
12:00 PM 54 °F - 33 °F 33% 29.93 in 19 mi South 9.2 mph - -  
12:00 PM 53.6 °F - 30.2 °F 41% 29.92 in 6.2 mi WSW 6.9 mph - N/A   Partly Cloudy
12:30 PM 53.6 °F - 33.8 °F 47% 29.92 in 6.2 mi South 5.8 mph - N/A   Partly Cloudy
1:00 PM 56 °F - 33 °F 30% 29.91 in 19 mi NW 9.2 mph - -   Scattered Clouds
1:00 PM 55.4 °F - 28.4 °F 36% 29.89 in 6.2 mi NW 6.9 mph - N/A   Partly Cloudy
1:30 PM 55.4 °F - 23.0 °F 29% 29.89 in 6.2 mi NW 13.8 mph - N/A   Partly Cloudy
2:00 PM 54 °F - 28 °F 24% 29.89 in 19 mi West 15.0 mph - -  
2:00 PM 53.6 °F - 24.8 °F 33% 29.89 in 6.2 mi West 15.0 mph - N/A   Partly Cloudy
2:30 PM 53.6 °F - 24.8 °F 33% 29.86 in 6.2 mi West 16.1 mph - N/A   Partly Cloudy
3:00 PM 54 °F - 28 °F 24% 29.85 in 19 mi West 15.0 mph - -  
3:00 PM 53.6 °F - 24.8 °F 33% 29.83 in 6.2 mi West 12.7 mph - N/A   Partly Cloudy
3:30 PM 53.6 °F - 24.8 °F 33% 29.83 in 6.2 mi West 10.4 mph - N/A   Partly Cloudy
4:00 PM 54 °F - 32 °F 30% 29.84 in 19 mi WSW 12.7 mph - -   Scattered Clouds
4:00 PM 53.6 °F - 30.2 °F 41% 29.83 in 6.2 mi West 8.1 mph - N/A   Partly Cloudy
4:30 PM 51.8 °F - 30.2 °F 44% 29.83 in 6.2 mi West 12.7 mph - N/A   Partly Cloudy
5:00 PM 52 °F - 34 °F 38% 29.83 in 19 mi West 17.3 mph - -  
5:00 PM 51.8 °F - 32.0 °F 47% 29.83 in 6.2 mi West 17.3 mph - N/A   Partly Cloudy
5:30 PM 51.8 °F - 32.0 °F 47% 29.80 in 6.2 mi West 13.8 mph - N/A   Partly Cloudy
6:00 PM 50 °F - 37 °F 49% 29.81 in 19 mi West 15.0 mph - -  
6:00 PM 50.0 °F - 33.8 °F 54% 29.80 in 6.2 mi West 15.0 mph - N/A   Partly Cloudy
6:30 PM 50.0 °F - 35.6 °F 58% 29.80 in 6.2 mi West 17.3 mph 28.8 mph N/A   Partly Cloudy
7:00 PM 49 °F - 38 °F 57% 29.83 in 19 mi West 11.5 mph - -   Scattered Clouds
7:00 PM 48.2 °F - 35.6 °F 62% 29.80 in 6.2 mi West 12.7 mph 24.2 mph N/A   Scattered Clouds
7:30 PM 48.2 °F - 35.6 °F 62% 29.80 in 6.2 mi West 13.8 mph - N/A   Scattered Clouds
8:00 PM 48 °F - 38 °F 60% 29.83 in 19 mi West 13.8 mph - -  
8:00 PM 48.2 °F - 35.6 °F 62% 29.80 in 6.2 mi West 15.0 mph - N/A   Partly Cloudy
8:30 PM 48.2 °F - 35.6 °F 62% 29.80 in 6.2 mi West 12.7 mph - N/A   Partly Cloudy
9:00 PM 47 °F - 38 °F 60% 29.83 in 19 mi West 8.1 mph - -  
9:00 PM 48.2 °F - 35.6 °F 62% 29.80 in 6.2 mi West 5.8 mph - N/A   Partly Cloudy
9:30 PM 48.2 °F - 35.6 °F 62% 29.83 in 6.2 mi West 10.4 mph - N/A   Partly Cloudy
10:00 PM 48 °F - 37 °F 56% 29.85 in 19 mi WNW 6.9 mph - -   Scattered Clouds
10:00 PM 48.2 °F - 35.6 °F 62% 29.83 in 6.2 mi WNW 5.8 mph - N/A   Partly Cloudy
10:30 PM 46.4 °F 41.9 °F 35.6 °F 66% 29.83 in 6.2 mi NW 9.2 mph - N/A   Partly Cloudy
11:00 PM 46 °F - 37 °F 63% 29.86 in 19 mi NNW 9.2 mph - -  
11:00 PM 44.6 °F 37.8 °F 35.6 °F 71% 29.83 in 6.2 mi NW 15.0 mph - N/A   Partly Cloudy
11:30 PM 44.6 °F 37.8 °F 35.6 °F 71% 29.86 in 6.2 mi NW 15.0 mph - N/A   Partly Cloudy